[[{"header":{"parameterUnit":"m.s-1","parameterCategory":1,"la1":30.2991,"la2":30.254,"lo1":-89.0895,"lo2":-89.0444,"dy":0.0017,"dx":0.0017,"nx":28,"ny":28,"refTime":"2025-04-04T21:00:00:Z","depth":0,"parameterNumber":2,"parameterNumberName":"U-component_of_WINDS"},"data":[0,0,0,0,0,0,0,0,0,0,0,0,0,0,0,0,0,0,0,0,0,0,0,0,0,0,0,0,0,0,0,0,0,0,0,0,0,0,0,0,0,0,0,0,0,0,0,0,0,0,0,0,0,0,0,0,0,0,2.5179,2.5178,0,2.5164,2.5164,2.5164,2.5083,2.5081,2.5079,2.5077,2.5066,2.5067,2.5069,0,0,0,0,0,0,0,0,0,0,0,0,0,2.514,2.5141,2.5179,2.5178,2.5178,2.5164,2.5164,2.5164,2.5083,2.5081,2.5079,2.5076,2.5065,2.5067,2.5069,0,0,0,0,0,0,0,0,0,0,0,0,0,2.5144,2.5141,2.5179,2.5136,2.5132,2.5164,2.5164,2.5164,2.5084,2.5081,2.5078,2.5075,2.5065,2.5067,2.5069,2.5142,0,0,2.5076,2.5077,0,0,0,0,0,0,0,0,2.5144,2.5146,2.5143,2.5139,2.5135,2.5122,2.5146,2.5156,2.5085,2.5102,2.5077,2.5074,2.5087,2.5087,2.5091,2.5141,2.5141,2.5076,2.5078,2.5079,2.5079,0,0,0,0,0,0,0,2.5144,2.5146,2.5173,2.5143,2.5138,2.5119,2.5116,2.5148,2.5112,2.5101,2.5095,2.5094,2.5085,2.5089,2.509,2.514,2.5076,2.5078,2.508,2.5081,2.5249,2.5252,0,0,0,0,0,0,2.5149,2.5146,2.5173,2.5173,2.5132,2.5122,2.5119,2.5129,2.5111,2.5105,2.5096,2.509,2.5087,2.5088,2.509,2.5173,2.5079,2.5081,2.5082,2.5246,2.525,2.5253,0,0,0,0,0,0,2.5148,2.5152,2.5174,2.5158,2.5159,2.5126,2.5138,2.5131,2.5135,2.5108,2.5101,2.5108,2.5085,2.5086,2.5129,2.5172,2.5082,2.5084,2.5242,2.5247,2.5251,2.5341,0,0,0,0,0,0,2.5148,2.5152,2.5179,2.5159,2.516,2.5213,2.5141,2.5132,2.5139,2.5131,2.5116,2.5111,2.5082,2.5126,2.5131,2.5173,2.5086,2.5238,2.5244,2.525,2.5334,2.5348,2.536,0,0,0,0,0,2.5146,2.5205,2.5181,2.5184,2.5192,2.5216,2.5216,2.5181,2.5143,2.5169,2.5152,2.5112,2.5166,2.5131,2.5136,2.5179,2.5236,2.5243,2.525,2.5328,2.5345,2.536,0,0,0,0,0,0,2.5232,2.5202,2.5174,2.5228,2.5225,2.5202,2.5234,2.52,2.5209,2.5201,2.5157,2.5155,2.5204,2.5196,2.5158,2.5249,2.5194,2.5202,2.5252,2.5268,2.5281,2.5282,2.5087,0,0,0,0,0,2.5257,2.5278,2.525,2.5301,2.53,2.5268,2.5277,2.525,2.5245,2.5244,2.5229,2.5227,2.5243,2.5255,2.5269,2.5332,2.5328,2.5365,2.5378,2.5389,2.5396,2.5429,2.5445,2.5276,2.5276,2.5276,0,0,2.531,2.5296,2.5311,2.5318,2.5312,2.5335,2.5267,2.5295,2.5311,2.5248,2.5287,2.5276,2.5271,2.5325,2.5347,2.5319,2.5442,2.5398,2.5406,2.5408,2.5438,2.5454,2.5469,2.5281,2.528,2.5279,0,0,2.5416,2.5408,2.5448,2.5444,2.5436,2.5414,2.5424,2.5406,2.5396,2.5434,2.5387,2.5407,2.5437,2.5435,2.5438,2.5544,2.5508,2.555,2.5618,2.5651,2.5664,2.5676,2.5714,2.5728,2.5558,2.5558,2.5558,0,2.5483,2.5514,2.5474,2.5504,2.5509,2.5451,2.5493,2.5491,2.5488,2.5493,2.5461,2.5497,2.5489,2.5542,2.5567,2.5572,2.5582,2.5551,2.5665,2.5677,2.5687,2.5722,2.5737,2.5563,2.5563,2.5562,2.5562,0,2.5596,2.5619,2.5653,2.5651,2.5659,2.5695,2.5661,2.5674,2.5647,2.5629,2.5669,2.5658,2.5668,2.5678,2.5652,2.5727,2.571,2.5673,2.5617,2.5709,2.5742,2.5755,2.5571,2.5569,2.5567,2.5566,0,0,2.5756,2.5731,2.5744,2.5742,2.5729,2.5747,2.578,2.5789,2.5802,2.5802,2.583,2.5856,2.5821,2.5825,2.5798,2.5827,2.5912,2.5786,2.5785,2.5809,2.5994,2.6021,2.6038,2.5887,2.589,2.5892,2.5994,0,2.5858,2.5913,2.5878,2.5938,2.5959,2.5905,2.5934,2.593,2.5914,2.593,2.5913,2.5932,2.5885,2.5887,2.5913,2.5896,2.5948,2.5888,2.5913,2.5915,2.5916,2.6055,2.6085,2.6181,2.6006,2.6009,2.601,0,2.5984,2.5989,2.6051,2.6034,2.6042,2.6068,2.6074,2.609,2.6084,2.6071,2.6075,2.6041,2.6073,2.6018,2.6063,2.6023,2.6031,2.6025,2.6028,2.6028,2.5968,2.606,2.6211,2.6226,2.603,2.6028,2.6027,0,2.6095,2.6117,2.6157,2.6157,2.6138,2.6158,2.6151,2.6143,2.6151,2.6156,2.6161,2.617,2.6176,2.6184,2.6154,2.6117,2.6203,2.6146,2.6193,2.6194,2.6213,2.6213,2.6369,2.622,2.6219,2.6219,2.6219,0,2.6212,2.6252,2.6206,2.6231,2.6274,2.6235,2.6279,2.6267,2.626,2.6282,2.6236,2.6258,2.6217,2.6235,2.6212,2.6252,2.6255,2.6246,2.6239,2.625,2.6251,2.6254,2.6247,2.6223,2.6222,2.6221,2.6221,0,2.6342,2.6313,2.6353,2.6332,2.6327,2.6361,2.6342,2.6365,2.6346,2.6374,2.6379,2.6349,2.6368,2.6339,2.6355,2.6339,2.6395,2.6378,2.6397,2.6392,2.644,2.6436,2.6604,2.6624,2.6463,2.6464,2.6466,0,2.6419,2.6448,2.643,2.6441,2.6436,2.6455,2.6462,2.6425,2.6434,2.643,2.6454,2.6468,2.6478,2.6511,2.6491,2.6503,2.6486,2.6544,2.6488,2.6497,2.6487,2.6485,2.6488,2.6556,2.6558,2.6559,2.6561,0,2.6558,2.6542,2.6554,2.6561,2.6571,2.6575,2.6576,2.6588,2.6548,2.6561,2.6579,2.6587,2.6603,2.6618,2.6625,2.6619,2.6584,2.6579,2.659,2.6601,2.661,2.6606,2.6428,2.6575,2.6573,2.6572,2.6572,2.6571,2.6663,2.6687,2.6678,2.6693,2.6689,2.6691,2.6711,2.6694,2.6708,2.6717,2.6694,2.6718,2.6712,2.6718,2.6716,2.6734,2.6709,2.6726,2.673,2.6734,2.6742,2.6608,2.6735,2.6735,2.6735,2.6734,2.6734,0,2.68,2.6791,2.6805,2.6807,2.6819,2.6784,2.6783,2.6796,2.6817,2.6814,2.6824,2.6845,2.686,2.6842,2.6853,2.6872,2.6856,2.6876,2.6874,2.6873,2.6764,2.6753,2.6889,2.6889,2.6889,2.6889,2.6889,2.6889,2.6872,2.691,2.6893,2.6929,2.692,2.6942,2.6945,2.6947,2.6944,2.6969,2.6981,2.6969,2.696,2.697,2.6983,2.6977,2.6983,2.7009,2.6998,2.6896,2.6881,2.6867,2.6856,2.7011,2.7011,2.7106,2.7107,2.7107]},{"header":{"parameterUnit":"m.s-1","parameterCategory":1,"la1":30.2991,"la2":30.254,"lo1":-89.0895,"lo2":-89.0444,"dy":0.0017,"dx":0.0017,"nx":28,"ny":28,"refTime":"2025-04-04T21:00:00:Z","depth":0,"parameterNumber":3,"parameterNumberName":"V-component_of_WINDS"},"data":[0,0,0,0,0,0,0,0,0,0,0,0,0,0,0,0,0,0,0,0,0,0,0,0,0,0,0,0,0,0,0,0,0,0,0,0,0,0,0,0,0,0,0,0,0,0,0,0,0,0,0,0,0,0,0,0,0,0,5.1655,5.1661,0,5.2251,5.2258,5.2265,5.2449,5.2446,5.2443,5.244,5.3044,5.3062,5.3081,0,0,0,0,0,0,0,0,0,0,0,0,0,5.0663,5.068,5.1654,5.1662,5.1669,5.225,5.2258,5.2267,5.2449,5.2446,5.2442,5.2439,5.3038,5.306,5.3082,0,0,0,0,0,0,0,0,0,0,0,0,0,5.1159,5.0686,5.1653,5.183,5.1852,5.2249,5.2259,5.2269,5.245,5.2445,5.2441,5.2437,5.303,5.3058,5.3085,5.3346,0,0,5.3171,5.3184,0,0,0,0,0,0,0,0,5.1131,5.1196,5.1797,5.1819,5.1844,5.2271,5.2131,5.263,5.2451,5.2223,5.244,5.2435,5.279,5.2837,5.2959,5.3374,5.34,5.3174,5.3191,5.3203,5.3211,0,0,0,0,0,0,0,5.1096,5.1171,5.189,5.1805,5.1834,5.1877,5.1943,5.2226,5.2523,5.2242,5.2257,5.2326,5.2802,5.2931,5.2974,5.3409,5.3173,5.3198,5.3215,5.3226,5.4066,5.4071,0,0,0,0,0,0,5.1033,5.1141,5.1871,5.1908,5.147,5.1898,5.1972,5.2138,5.252,5.2575,5.2329,5.2332,5.2885,5.2941,5.2996,5.3327,5.3203,5.3229,5.3245,5.406,5.4067,5.4073,0,0,0,0,0,0,5.1011,5.1096,5.1847,5.1529,5.1628,5.192,5.2105,5.2152,5.2282,5.2586,5.2639,5.2407,5.2884,5.2956,5.3258,5.335,5.3242,5.3267,5.4054,5.4062,5.407,5.3989,0,0,0,0,0,0,5.0982,5.1088,5.1192,5.153,5.1644,5.2102,5.2111,5.2167,5.2331,5.2341,5.2673,5.2724,5.2886,5.3215,5.3285,5.3387,5.3289,5.4047,5.4058,5.4067,5.3984,5.3993,5.4,0,0,0,0,0,5.0946,5.1144,5.1197,5.1284,5.1782,5.2107,5.2172,5.2356,5.2338,5.2444,5.2638,5.2714,5.3327,5.3244,5.3325,5.3436,5.4042,5.4055,5.4066,5.3981,5.3991,5.4,0,0,0,0,0,0,5.0808,5.1192,5.1254,5.1569,5.1804,5.2137,5.2277,5.2361,5.2605,5.2604,5.2819,5.2893,5.3178,5.3337,5.3237,5.3707,5.3687,5.3716,5.3594,5.3607,5.3614,5.3571,5.3313,0,0,0,0,0,5.0814,5.1049,5.137,5.1616,5.1731,5.1983,5.2132,5.2253,5.2505,5.2604,5.2821,5.306,5.3307,5.3465,5.3709,5.4006,5.4081,5.4122,5.413,5.4135,5.4159,5.4327,5.4349,5.4113,5.4113,5.4112,0,0,5.0829,5.1068,5.1203,5.1595,5.1792,5.2027,5.2066,5.2314,5.249,5.2641,5.2941,5.3106,5.3387,5.3687,5.383,5.3829,5.4239,5.4151,5.4152,5.4174,5.4341,5.4363,5.4383,5.4121,5.4119,5.4118,0,0,5.0978,5.1182,5.141,5.1606,5.1904,5.207,5.2123,5.2444,5.2561,5.2865,5.2983,5.3192,5.3613,5.3809,5.3962,5.418,5.4258,5.4252,5.4295,5.4456,5.4475,5.4493,5.4571,5.4596,5.4274,5.4274,5.4274,0,5.0959,5.1323,5.1515,5.1759,5.1926,5.2074,5.2305,5.2484,5.2845,5.2956,5.2948,5.3479,5.3678,5.4025,5.4078,5.4197,5.4264,5.4218,5.4457,5.4477,5.4496,5.4573,5.4602,5.4271,5.4272,5.4272,5.4272,0,5.1284,5.1533,5.1681,5.2028,5.2212,5.2446,5.2672,5.2834,5.2937,5.3101,5.3406,5.365,5.3945,5.4036,5.4139,5.4398,5.4387,5.4415,5.44,5.4513,5.4589,5.462,5.4268,5.4269,5.427,5.427,0,0,5.1368,5.1816,5.1867,5.2026,5.2364,5.2559,5.2797,5.3088,5.3223,5.3464,5.367,5.402,5.4048,5.4222,5.4347,5.4488,5.4645,5.45,5.451,5.452,5.4945,5.4923,5.4955,5.4697,5.4703,5.4708,5.4922,0,5.1561,5.2,5.2178,5.2532,5.2763,5.2905,5.3113,5.334,5.3499,5.3716,5.389,5.4136,5.4153,5.4259,5.4405,5.4595,5.4734,5.4582,5.4889,5.4898,5.4818,5.4995,5.4974,5.5164,5.4952,5.4958,5.4961,0,5.1847,5.2093,5.247,5.2778,5.2882,5.3067,5.3347,5.3553,5.3811,5.3916,5.4109,5.4226,5.4479,5.4443,5.4793,5.4686,5.4821,5.4932,5.4944,5.4982,5.4939,5.5039,5.5229,5.5258,5.501,5.5006,5.5002,0,5.1871,5.2296,5.2578,5.2708,5.3074,5.32,5.3357,5.3613,5.3775,5.4017,5.4125,5.4391,5.4538,5.474,5.4925,5.4882,5.5257,5.5237,5.5351,5.5346,5.5427,5.542,5.5643,5.5508,5.5508,5.5507,5.5506,0,5.2071,5.2296,5.2594,5.2766,5.3022,5.3222,5.3468,5.3634,5.3859,5.4064,5.42,5.4389,5.462,5.4837,5.4981,5.5249,5.5313,5.5404,5.5441,5.5395,5.5383,5.5489,5.5481,5.5515,5.5513,5.5512,5.551,0,5.2143,5.2352,5.2667,5.2987,5.3072,5.3246,5.3519,5.369,5.3853,5.4111,5.4182,5.4438,5.4701,5.4904,5.5244,5.5341,5.5625,5.5662,5.5539,5.5558,5.5661,5.5649,5.5962,5.6013,5.584,5.5841,5.5842,0,5.2258,5.2436,5.2774,5.2923,5.308,5.3317,5.3484,5.3685,5.3853,5.4159,5.4292,5.4565,5.4794,5.5206,5.542,5.568,5.5727,5.5819,5.5767,5.5715,5.5731,5.572,5.5738,5.5826,5.5827,5.5827,5.5828,0,5.2441,5.2535,5.2772,5.3045,5.3241,5.3464,5.369,5.3803,5.4044,5.4224,5.4496,5.4674,5.5021,5.529,5.5571,5.573,5.5819,5.5841,5.5882,5.5839,5.576,5.5806,5.5559,5.5835,5.5834,5.5834,5.5833,5.5833,5.2541,5.2705,5.2969,5.3227,5.3419,5.3626,5.3803,5.3988,5.4219,5.4521,5.4623,5.4902,5.5153,5.5541,5.5701,5.592,5.5924,5.5982,5.5997,5.6009,5.6006,5.5722,5.5971,5.5972,5.5972,5.5972,5.5972,0,5.2732,5.2908,5.3144,5.3457,5.366,5.3726,5.3979,5.4143,5.4388,5.4616,5.4839,5.5149,5.5408,5.5641,5.5911,5.6041,5.6089,5.6105,5.61,5.6135,5.5986,5.5926,5.6063,5.6063,5.6063,5.6063,5.6062,5.6062,5.2856,5.3137,5.3261,5.3636,5.381,5.4088,5.4226,5.4416,5.4599,5.4941,5.5158,5.5309,5.5538,5.5825,5.6065,5.6127,5.622,5.6227,5.6299,5.6157,5.6145,5.6134,5.6078,5.6245,5.6245,5.643,5.6431,5.6433]}]]